UMBRA-09

Last updated on Mon Sep 16 2024 00:02:03 GMT+0000 (Coordinated Universal Time)

1 60541U 24149CB 24258.92572619 .00021367 00000+0 20434-2 0 9991 2 60541 97.7469 333.9513 0004033 64.6867 295.4770 14.93235589 4337
UTC large
Height (km)
Speed (km/s)
/
Latitude / Longitude
Inclination (degrees)
Orbital Period (minutes)
Azimuth
Elevation
Range (km)
Doppler Factor

Next 0 passes for location: London (51.5072 / 0.1276)

Sorry there are no passes over London.